Showing default

HUMSAT D, 39433

Orbit data source: Space-Track

HUMSAT D, 39433 is a payload satellite owned by U. Vigo (ES) in SSO that was launched on Thu, 21 Nov 2013 UTC via a DNEPR launch vehicle from the Orenburg, Russia (OREN). Payload-class satellites include a variety of spacecraft equipped with specific instruments for various scientific and technological missions. These include communications satellites like Starlink; space stations such as the ISS; scientific satellites like the Hubble; Earth observation satellites from companies like Planet Labs, Umbra, and HawkEye 360; GPS; miniature CubeSats for education and research; and military/defense satellites.

Loading next visibility...
Identifier
39433, 2013-066T
Orbit
SSO
Country
Flag of ESES / SPN
Related business
Manufacturer
U. Vigo
Mission
Non-operational Amateur Technology
Bus & Motor
CUBESAT 1U, Unknown motor
Mass
1 kg wet, 1 kg dry
Launch date (UTC)
2013-11-21 (12 years ago)
Launch vehicle
DNEPR
Launch site
Orenburg, Russia (OREN)
Object type
Payload
Rocket body
Debris
Shape & HBR
Box, 0.1 m
Radar Cross Section
0.015 m², Small (<0.1 m²)

Expand to show TLE details & history
Last TLE update: 1 day ago

TLE from 1 day ago
0 HUMSAT D
1 39433U 13066T   26037.00238542  .00324127  00000-0  19957-2 0  9992
2 39433  97.4946  47.1219 0002291  61.2120 298.9376 15.76280709666437
Epoch: 2026-02-06T00:03Z
TLE epoch observation values (Epoch: 2026-02-06T00:03:26.100Z)
Latitude
0.00008°
Longitude
-89.88338°
Altitude
343.408 km
Speed
7.703 km/s
True Right ascension
03h 08m 29s
True Declination
0° 00' 00"
Sunlit
Object was in daylight at epoch
Visualization orbit readout
Latitude
Unknown
Longitude
Unknown
Altitude
Unknown
Speed
Unknown
Apparent Right ascension
Unknown
Apparent Declination
Unknown
Sunlit
N/A
Visualization observer readout
Local Sidereal Time
02:41:30
Azimuth
Unknown
Elevation
Unknown
Doppler factor
Unknown
Orbital elements
Apogee altitude
339.423 km
Perigee altitude
336.346 km
Semi-major axis
6,716.021 km
Eccentricity
0.00023
Inclination
97.4946°
RAAN
47.1219°
Arg. of periapsis
61.212°
True anomaly
298.91462°
Mean anomaly
298.9376°
Eccentric anomaly
298.92611°
Mean motion
3.94344 °/min
Orbital period
91.29 mins
BSTAR
0.0019957
Loading maneuver chart data...
Computing Atmospheric mass density...
Loading historical data...
Loading historical data...
Loading historical data...
Loading historical data...
Loading historical data...
Loading historical data...
Loading historical data...

Documentation

Showing up to 5 results
|